{"data":{"norad_id":69753,"intl_designator":"2026-150Q","name":"STARLINK-37965","alt_names":[],"object_type":"PAYLOAD","status":"ACTIVE","operator":null,"country":"US","launch_date":"2026-07-02","launch_site_code":"AFWTR","launch_vehicle":null,"mission":null,"orbit_class":"UNKNOWN","rcs_meters":null,"size_class":null,"mass_kg":null,"dimensions":null,"purposes":["comms"],"wikipedia_slug":null,"has_3d_model":false,"image_url":null,"decayed_at":null,"tle_current":{"epoch":"2026-09-20T00:17:49.090272Z","epoch_age_seconds":59949,"freshness":"FRESH","line1":"1 69753U 26150Q   26263.01237373  .00017806  00000+0  55210-3 0  9996","line2":"2 69753  97.2868 101.9873 0002654  81.4714 278.6829 15.33469076 13665","mean_motion":15.33469076,"eccentricity":0.0002654,"inclination_deg":97.2868,"raan_deg":101.9873,"arg_perigee_deg":81.4714,"mean_anomaly_deg":278.6829,"bstar":0.0005521,"rev_number":1366,"period_min":93.904730296628,"perigee_km":463.65524847117,"apogee_km":467.28783588536,"semimajor_km":6843.6085421783,"source":"CELESTRAK","updated_at":"2026-09-20T09:00:44.288790Z"}}}